Location: Unspecified
(0.0000°N, 0.0000°E)
Time: 22:27:04
(UTC+02:00)

NOSS 3-3 (A) - Visible Passes

Search period start: 28 June 2016 00:00
Search period end: 08 July 2016 00:00
Orbit: 932 x 1281 km, 63.4° (Epoch: 09 June)

Date Brightness Start Highest point End Pass type
(mag) Time Alt. Az. Time Alt. Az. Time Alt. Az.
28 Jun 6.6 06:42:54 10° SE 06:44:27 11° ESE 06:45:58 10° E visible
29 Jun 6.7 21:13:50 10° WNW 21:18:59 19° WSW 21:24:08 10° SSW visible
30 Jun 5.3 07:00:20 10° S 07:05:55 36° ESE 07:11:28 10° NE visible
30 Jun 6.1 20:27:18 10° NW 20:34:16 34° WSW 20:41:14 10° S visible
01 Jul 6.2 06:17:16 10° SSE 06:21:17 18° ESE 06:25:15 10° ENE visible
02 Jul 3.9 07:21:09 10° SSW 07:27:16 74° WNW 07:33:24 10° NNE visible
02 Jul 7.0 20:53:09 10° W 20:55:52 12° WSW 20:58:34 10° SW visible
03 Jul 4.5 06:37:15 13° S 06:42:42 56° ESE 06:48:40 10° NE visible
04 Jul 5.5 05:54:49 18° SSE 05:58:05 28° ESE 06:03:11 10° ENE visible
05 Jul 6.3 05:12:23 13° SE 05:13:25 13° ESE 05:16:12 10° E visible
05 Jul 4.2 06:59:53 19° SW 07:04:02 48° WNW 07:09:56 10° N visible
06 Jul 3.8 06:17:23 44° SSW 06:19:27 85° ESE 06:25:36 10° NNE visible
07 Jul 4.8 05:34:51 42° ESE 05:34:52 42° ESE 05:40:36 10° NE visible
07 Jul 5.5 07:22:21 11° W 07:25:28 15° WNW 07:28:56 10° NNW visible
